This is the latest recevied weather packets stored in our database for station/object JR4VEV-13. If no packets are shown the sender has not sent any weather packets the latest 10 day(s).
| Time | Temp. | Humidity | Pressure | Rain* | Wind** | Luminosity | Snow |
|---|---|---|---|---|---|---|---|
| 1777468378 | 13.33° C | 89% | 1018.7 hPa | 0 mm | - | - | - |
| 1777467778 | 13.33° C | 88% | 1018.6 hPa | 0 mm | - | - | - |
| 1777467178 | 13.33° C | 88% | 1018.6 hPa | 0 mm | - | - | - |
| 1777466578 | 13.33° C | 88% | 1018.6 hPa | 0 mm | - | - | - |
| 1777465979 | 13.33° C | 87% | 1018.6 hPa | 0 mm | - | - | - |
| 1777465379 | 13.89° C | 86% | 1018.6 hPa | 0 mm | - | - | - |
| 1777464778 | 13.89° C | 86% | 1018.7 hPa | 0 mm | - | - | - |
| 1777464178 | 13.89° C | 83% | 1018.6 hPa | 0 mm | - | - | - |
| 1777463578 | 14.44° C | 81% | 1018.5 hPa | 0 mm | - | - | - |
| 1777462979 | 14.44° C | 80% | 1018.4 hPa | 0 mm | - | - | - |
| 1777462379 | 15° C | 80% | 1018.5 hPa | 0 mm | - | - | - |
| 1777461778 | 15° C | 78% | 1018.3 hPa | 0 mm | - | - | - |
| 1777461178 | 15° C | 76% | 1018.1 hPa | 0 mm | - | - | - |
| 1777460579 | 15° C | 76% | 1017.9 hPa | 0 mm | - | - | - |
| 1777459979 | 15.56° C | 75% | 1017.8 hPa | 0 mm | - | - | - |
| 1777459379 | 15.56° C | 73% | 1017.8 hPa | 0 mm | - | - | - |
| 1777458778 | 16.11° C | 67% | 1017.7 hPa | 0 mm | - | - | - |
| 1777458179 | 16.11° C | 64% | 1017.8 hPa | 0 mm | - | - | - |
| 1777457578 | 16.11° C | 71% | 1017.7 hPa | 0 mm | - | - | - |
| 1777456979 | 16.11° C | 71% | 1017.6 hPa | 0 mm | - | - | - |
| 1777456379 | 16.67° C | 69% | 1017.6 hPa | 0 mm | - | - | - |
| 1777455778 | 16.67° C | 70% | 1017.4 hPa | 0 mm | - | - | - |
| 1777455179 | 16.67° C | 68% | 1017.1 hPa | 0 mm | - | - | - |
| 1777454578 | 17.22° C | 69% | 1017 hPa | 0 mm | - | - | - |
| 1777453979 | 17.78° C | 66% | 1016.8 hPa | 0 mm | - | - | - |
* Rain latest hour (hover to see other rain measurements)
** Current wind speed in m/s (hover to see current wind gust speed)